K7BC Weather Reports


time (UTC)temp
F
wind
direction
speed
knots
gust
knots
rain 1hr
in
rain 24hr
in
rain mn
in
humidity
%
barometer
mb
20260510153455 80 199 0.0 0.9 0.00 0.00 0.00 44 1013.7
20260510153255 80 261 0.0 0.9 0.00 0.00 0.00 46 1013.7
20260510153055 80 185 0.0 1.7 0.00 0.00 0.00 47 1013.7
20260510152855 80 184 0.9 0.9 0.00 0.00 0.00 46 1013.7
20260510152655 80 160 0.9 2.6 0.00 0.00 0.00 47 1013.8
20260510152455 80 184 0.0 0.9 0.00 0.00 0.00 49 1013.7
20260510152255 80 256 0.0 0.9 0.00 0.00 0.00 48 1013.6
20260510152055 79 342 0.0 0.9 0.00 0.00 0.00 49 1013.7
20260510151855 79 0 0.0 0.9 0.00 0.00 0.00 47 1013.6
20260510151655 79 76 0.0 0.9 0.00 0.00 0.00 46 1013.6
20260510151455 79 261 0.0 1.7 0.00 0.00 0.00 49 1013.7
20260510151255 79 286 0.9 0.9 0.00 0.00 0.00 47 1013.6
20260510151055 79 69 0.9 2.6 0.00 0.00 0.00 45 1013.6
20260510150855 79 126 0.0 1.7 0.00 0.00 0.00 47 1013.6
20260510150655 79 342 0.0 0.9 0.00 0.00 0.00 48 1013.6
20260510150455 79 65 0.0 0.9 0.00 0.00 0.00 45 1013.7
20260510150255 79 73 0.9 1.7 0.00 0.00 0.00 47 1013.6
20260510150055 79 92 0.9 0.9 0.00 0.00 0.00 48 1013.6
20260510145855 79 257 0.9 0.9 0.00 0.00 0.00 46 1013.6
20260510145655 79 252 0.0 0.0 0.00 0.00 0.00 46 1013.6
20260510145455 79 156 0.9 1.7 0.00 0.00 0.00 47 1013.6
20260510145255 79 127 0.9 1.7 0.00 0.00 0.00 49 1013.6
20260510145055 78 284 0.0 0.0 0.00 0.00 0.00 50 1013.5
20260510144855 78 128 0.0 0.0 0.00 0.00 0.00 47 1013.5
20260510144655 78 218 0.0 2.6 0.00 0.00 0.00 50 1013.5
20260510144455 78 251 0.0 0.9 0.00 0.00 0.00 50 1013.4
20260510144255 78 248 0.0 0.9 0.00 0.00 0.00 50 1013.4
20260510144055 78 232 0.0 1.7 0.00 0.00 0.00 51 1013.4
20260510143855 78 73 0.9 1.7 0.00 0.00 0.00 47 1013.3
20260510143655 78 78 0.0 1.7 0.00 0.00 0.00 47 1013.4
20260510143455 78 146 0.9 1.7 0.00 0.00 0.00 46 1013.3
20260510143255 78 169 0.9 1.7 0.00 0.00 0.00 49 1013.3
20260510143055 78 209 0.0 0.9 0.00 0.00 0.00 49 1013.3
20260510142855 77 160 0.0 0.9 0.00 0.00 0.00 47 1013.2
20260510142655 77 108 0.0 1.7 0.00 0.00 0.00 47 1013.2
20260510142455 77 112 0.9 2.6 0.00 0.00 0.00 48 1013.2
20260510142255 77 174 0.0 2.6 0.00 0.00 0.00 50 1013.1
20260510142055 76 174 0.0 1.7 0.00 0.00 0.00 49 1013.1
20260510141855 76 245 0.9 0.9 0.00 0.00 0.00 48 1013.1
20260510141655 76 207 0.0 0.9 0.00 0.00 0.00 49 1013.0
20260510141455 76 172 0.0 0.9 0.00 0.00 0.00 50 1013.1
20260510141257 76 230 0.9 2.6 0.00 0.00 0.00 52 1013.1
20260510141057 76 176 0.0 0.9 0.00 0.00 0.00 50 1013.0
20260510140857 75 194 0.0 0.9 0.00 0.00 0.00 53 1013.0
20260510140657 75 228 0.0 0.0 0.00 0.00 0.00 51 1013.1
20260510140457 75 229 0.0 0.9 0.00 0.00 0.00 53 1013.0
20260510140257 75 219 0.9 2.6 0.00 0.00 0.00 52 1013.1
20260510140057 75 204 0.9 2.6 0.00 0.00 0.00 53 1013.0
20260510135857 74 204 0.0 0.9 0.00 0.00 0.00 54 1013.1
20260510135657 74 232 0.0 0.9 0.00 0.00 0.00 55 1013.2
20260510135505 74 231 0.9 0.9 0.00 0.00 0.00 54 1013.2
20260510135306 74 201 0.9 1.7 0.00 0.00 0.00 56 1013.2
20260510135105 73 99 0.0 0.9 0.00 0.00 0.00 57 1013.2
20260510134905 73 357 0.0 0.9 0.00 0.00 0.00 58 1013.2
20260510134704 73 281 0.0 0.0 0.00 0.00 0.00 57 1013.2
20260510134505 73 281 0.9 0.9 0.00 0.00 0.00 56 1013.3
20260510134304 73 208 0.0 0.0 0.00 0.00 0.00 58 1013.2
20260510134104 73 253 0.0 0.0 0.00 0.00 0.00 57 1013.3
20260510133904 73 253 0.0 0.9 0.00 0.00 0.00 60 1013.3
20260510133704 73 142 0.0 0.9 0.00 0.00 0.00 59 1013.3
20260510133504 73 156 0.0 1.7 0.00 0.00 0.00 58 1013.3
20260510133304 73 239 0.0 0.9 0.00 0.00 0.00 57 1013.3
20260510133104 73 162 0.0 0.0 0.00 0.00 0.00 60 1013.3
20260510132904 72 161 0.0 0.0 0.00 0.00 0.00 60 1013.2
20260510132704 72 160 0.0 0.0 0.00 0.00 0.00 60 1013.2
20260510132504 72 213 0.9 0.9 0.00 0.00 0.00 60 1013.2
20260510132306 72 218 0.0 0.9 0.00 0.00 0.00 61 1013.2
20260510132104 72 110 0.0 0.9 0.00 0.00 0.00 61 1013.2
20260510131904 72 110 0.0 0.9 0.00 0.00 0.00 62 1013.1
20260510131704 72 110 0.0 0.0 0.00 0.00 0.00 62 1013.1
20260510131504 72 110 0.0 0.0 0.00 0.00 0.00 66 1013.1
20260510131304 71 110 0.0 0.9 0.00 0.00 0.00 65 1013.1
20260510131104 71 109 0.0 0.9 0.00 0.00 0.00 65 1013.1
20260510130904 71 146 0.0 0.0 0.00 0.00 0.00 65 1013.2
20260510130704 70 145 0.0 0.9 0.00 0.00 0.00 67 1013.3
20260510130504 70 145 0.0 0.0 0.00 0.00 0.00 67 1013.2
20260510130304 69 143 0.0 0.9 0.00 0.00 0.00 67 1013.2
20260510130104 69 143 0.0 0.9 0.00 0.00 0.00 67 1013.3
20260510125904 69 145 0.0 0.9 0.00 0.00 0.00 67 1013.4
20260510125704 69 152 0.0 0.0 0.00 0.00 0.00 68 1013.4
20260510125504 69 152 0.0 0.0 0.00 0.00 0.00 69 1013.4
20260510125306 68 98 0.0 0.9 0.00 0.00 0.00 70 1013.5
20260510125104 68 75 0.0 0.0 0.00 0.00 0.00 71 1013.5
20260510124904 67 75 0.0 0.0 0.00 0.00 0.00 73 1013.5
20260510124704 66 75 0.0 0.9 0.00 0.00 0.00 74 1013.5
20260510124504 66 75 0.0 0.9 0.00 0.00 0.00 75 1013.6
20260510124304 66 74 0.0 0.0 0.00 0.00 0.00 73 1013.6
20260510124104 66 68 0.9 1.7 0.00 0.00 0.00 73 1013.7
20260510123904 66 63 0.0 0.9 0.00 0.00 0.00 73 1013.7
20260510123704 66 63 0.9 1.7 0.00 0.00 0.00 72 1013.7
20260510123504 67 74 0.0 1.7 0.00 0.00 0.00 74 1013.7
20260510123304 66 73 0.0 0.9 0.00 0.00 0.00 74 1013.7
20260510123104 66 73 0.0 0.9 0.00 0.00 0.00 76 1013.7
20260510122904 65 73 0.0 0.0 0.00 0.00 0.00 78 1013.6
20260510122704 64 73 0.0 0.0 0.00 0.00 0.00 80 1013.6
20260510122504 64 73 0.0 0.0 0.00 0.00 0.00 81 1013.5
20260510122306 63 73 0.0 0.0 0.00 0.00 0.00 80 1013.6
20260510122104 63 73 0.0 0.0 0.00 0.00 0.00 81 1013.6
20260510121904 62 72 0.0 0.0 0.00 0.00 0.00 83 1013.5
20260510121704 62 86 0.0 0.0 0.00 0.00 0.00 82 1013.5
20260510121504 61 85 0.0 0.9 0.00 0.00 0.00 82 1013.5
20260510121304 61 87 0.9 0.9 0.00 0.00 0.00 83 1013.4
20260510121104 61 77 0.0 0.0 0.00 0.00 0.00 81 1013.4
20260510120904 61 67 0.9 1.7 0.00 0.00 0.00 82 1013.3
20260510120704 61 80 0.9 0.9 0.00 0.00 0.00 82 1013.4
20260510120504 61 83 0.9 0.9 0.00 0.00 0.00 81 1013.3
20260510120304 61 84 0.9 0.9 0.00 0.00 0.00 81 1013.2
20260510120104 61 66 0.0 0.9 0.00 0.00 0.00 80 1013.2
20260510115904 61 70 0.9 0.9 0.00 0.00 0.00 80 1013.2
20260510115704 62 143 0.0 0.0 0.00 0.00 0.00 80 1013.1
20260510115504 62 143 0.0 0.9 0.00 0.00 0.00 79 1013.1
20260510115306 62 191 0.0 0.0 0.00 0.00 0.00 81 1013.0
20260510115104 61 198 0.0 0.0 0.00 0.00 0.00 80 1013.0
20260510114904 61 198 0.0 0.0 0.00 0.00 0.00 79 1013.0
20260510114704 61 198 0.0 0.0 0.00 0.00 0.00 79 1012.9
20260510114504 61 199 0.0 0.0 0.00 0.00 0.00 80 1012.9
20260510114305 61 200 0.0 0.0 0.00 0.00 0.00 81 1012.9
20260510114104 61 200 0.0 0.0 0.00 0.00 0.00 81 1012.9
20260510113904 61 200 0.0 0.0 0.00 0.00 0.00 83 1012.9
20260510113704 60 200 0.0 0.0 0.00 0.00 0.00 84 1012.9
20260510113504 59 200 0.0 0.0 0.00 0.00 0.00 84 1012.9
20260510113304 59 200 0.0 0.0 0.00 0.00 0.00 86 1012.8
20260510113104 58 200 0.0 0.0 0.00 0.00 0.00 87 1012.8
20260510112904 58 200 0.0 0.0 0.00 0.00 0.00 88 1012.8
20260510112704 57 200 0.0 0.0 0.00 0.00 0.00 89 1012.8
20260510112504 57 200 0.0 0.0 0.00 0.00 0.00 90 1012.7
20260510112306 56 200 0.0 0.0 0.00 0.00 0.00 90 1012.6
20260510112104 49 354 0.0 0.0 0.00 0.00 0.00 94 1012.6
20260510111904 48 0 0.0 0.0 0.00 0.00 0.00 94 1012.5
20260510111704 48 0 0.0 0.0 0.00 0.00 0.00 94 1012.6
20260510111504 48 0 0.0 0.0 0.00 0.00 0.00 94 1012.5
20260510111304 48 0 0.0 0.0 0.00 0.00 0.00 94 1012.5
20260510111104 48 0 0.0 0.0 0.00 0.00 0.00 94 1012.5
20260510110904 48 0 0.0 0.0 0.00 0.00 0.00 94 1012.4
20260510110704 48 0 0.0 0.0 0.00 0.00 0.00 94 1012.4
20260510110504 48 0 0.0 0.0 0.00 0.00 0.00 94 1012.4
20260510110304 48 0 0.0 0.0 0.00 0.00 0.00 94 1012.3
20260510110104 48 0 0.0 0.0 0.00 0.00 0.00 94 1012.4
20260510105904 48 0 0.0 0.0 0.00 0.00 0.00 94 1012.3
20260510105704 48 0 0.0 0.0 0.00 0.00 0.00 94 1012.3
20260510105504 48 0 0.0 0.0 0.00 0.00 0.00 94 1012.3
20260510105306 48 0 0.0 0.0 0.00 0.00 0.00 94 1012.2
20260510105104 48 0 0.0 0.0 0.00 0.00 0.00 94 1012.2
20260510104904 48 0 0.0 0.0 0.00 0.00 0.00 94 1012.2
20260510104704 48 0 0.0 0.0 0.00 0.00 0.00 94 1012.2
20260510104504 48 0 0.0 0.0 0.00 0.00 0.00 94 1012.1
20260510104304 48 0 0.0 0.0 0.00 0.00 0.00 94 1012.1
20260510104104 48 0 0.0 0.0 0.00 0.00 0.00 94 1012.1
20260510103903 48 0 0.0 0.0 0.00 0.00 0.00 94 1012.1
20260510103703 48 0 0.0 0.0 0.00 0.00 0.00 94 1012.0
20260510103503 48 0 0.0 0.0 0.00 0.00 0.00 94 1012.0
20260510103303 48 0 0.0 0.0 0.00 0.00 0.00 94 1012.0
20260510103103 48 0 0.0 0.0 0.00 0.00 0.00 94 1012.0
20260510102903 48 0 0.0 0.0 0.00 0.00 0.00 94 1012.0
20260510102703 48 0 0.0 0.0 0.00 0.00 0.00 94 1012.0
20260510102503 48 0 0.0 0.0 0.00 0.00 0.00 94 1012.0
20260510102306 48 0 0.0 0.0 0.00 0.00 0.00 94 1012.0
20260510102105 48 0 0.0 0.0 0.00 0.00 0.00 94 1011.9
20260510101904 48 0 0.0 0.0 0.00 0.00 0.00 94 1011.9
20260510101704 48 0 0.0 0.0 0.00 0.00 0.00 94 1011.9
20260510101504 48 0 0.0 0.0 0.00 0.00 0.00 94 1011.8
20260510101304 48 0 0.0 0.0 0.00 0.00 0.00 94 1011.8
20260510101104 48 0 0.0 0.0 0.00 0.00 0.00 94 1011.8
20260510100904 48 0 0.0 0.0 0.00 0.00 0.00 94 1011.8
20260510100704 48 0 0.0 0.0 0.00 0.00 0.00 94 1011.7
20260510100504 48 0 0.0 0.0 0.00 0.00 0.00 94 1011.7
20260510100304 48 0 0.0 0.0 0.00 0.00 0.00 94 1011.6
20260510100104 48 0 0.0 0.0 0.00 0.00 0.00 94 1011.6
20260510095904 48 0 0.0 0.0 0.00 0.00 0.00 94 1011.6
20260510095704 48 0 0.0 0.0 0.00 0.00 0.00 94 1011.6
20260510095504 48 0 0.0 0.0 0.00 0.00 0.00 94 1011.6
20260510095306 48 0 0.0 0.0 0.00 0.00 0.00 94 1011.6
20260510095104 48 0 0.0 0.0 0.00 0.00 0.00 94 1011.6
20260510094904 48 0 0.0 0.0 0.00 0.00 0.00 94 1011.6
20260510094704 48 9 0.0 0.0 0.00 0.00 0.00 94 1011.6
20260510094504 48 200 0.0 0.0 0.00 0.00 0.00 94 1011.6
20260510094304 48 200 0.0 0.0 0.00 0.00 0.00 94 1011.6
20260510094104 48 200 0.0 0.0 0.00 0.00 0.00 94 1011.6
20260510093906 48 200 0.0 0.0 0.00 0.00 0.00 94 1011.6
20260510093705 48 200 0.0 0.0 0.00 0.00 0.00 94 1011.6
20260510093505 49 200 0.0 0.0 0.00 0.00 0.00 95 1011.6
20260510093305 50 200 0.0 0.0 0.00 0.00 0.00 95 1011.6
20260510093105 50 200 0.0 0.0 0.00 0.00 0.00 95 1011.6
20260510092905 50 200 0.0 0.0 0.00 0.00 0.00 95 1011.6
20260510092705 50 200 0.0 0.0 0.00 0.00 0.00 95 1011.6
20260510092505 50 200 0.0 0.0 0.00 0.00 0.00 95 1011.5
20260510092307 50 200 0.0 0.0 0.00 0.00 0.00 95 1011.5
20260510092105 50 200 0.0 0.0 0.00 0.00 0.00 95 1011.5
20260510091905 50 200 0.0 0.0 0.00 0.00 0.00 94 1011.5
20260510091705 50 200 0.0 0.0 0.00 0.00 0.00 94 1011.5
20260510091505 50 200 0.0 0.0 0.00 0.00 0.00 94 1011.5
20260510091305 50 200 0.0 0.0 0.00 0.00 0.00 94 1011.5
20260510091105 50 200 0.0 0.0 0.00 0.00 0.00 94 1011.5
20260510090905 50 200 0.0 0.0 0.00 0.00 0.00 94 1011.5
20260510090705 50 200 0.0 0.0 0.00 0.00 0.00 94 1011.5
20260510090505 50 200 0.0 0.0 0.00 0.00 0.00 94 1011.5
20260510090305 50 200 0.0 0.0 0.00 0.00 0.00 94 1011.4
20260510090105 50 200 0.0 0.0 0.00 0.00 0.00 94 1011.4
20260510085905 50 200 0.0 0.0 0.00 0.00 0.00 94 1011.4
20260510085705 50 200 0.0 0.0 0.00 0.00 0.00 94 1011.4
20260510085505 50 200 0.0 0.0 0.00 0.00 0.00 94 1011.4
20260510085306 50 200 0.0 0.0 0.00 0.00 0.00 94 1011.5
20260510085105 50 200 0.0 0.0 0.00 0.00 0.00 94 1011.5
20260510084905 50 200 0.0 0.0 0.00 0.00 0.00 94 1011.4
20260510084705 50 200 0.0 0.0 0.00 0.00 0.00 94 1011.4
20260510084505 51 200 0.0 0.0 0.00 0.00 0.00 94 1011.4
20260510084305 51 200 0.0 0.0 0.00 0.00 0.00 94 1011.4
20260510084105 51 203 0.0 0.0 0.00 0.00 0.00 95 1011.4
20260510083905 51 203 0.0 0.0 0.00 0.00 0.00 95 1011.3
20260510083705 51 203 0.0 0.0 0.00 0.00 0.00 94 1011.3
20260510083505 51 203 0.0 0.0 0.00 0.00 0.00 94 1011.2
20260510083305 51 203 0.0 0.0 0.00 0.00 0.00 94 1011.2
20260510083105 51 203 0.0 0.0 0.00 0.00 0.00 94 1011.2
20260510082905 51 203 0.0 0.0 0.00 0.00 0.00 94 1011.2
20260510082705 51 203 0.0 0.0 0.00 0.00 0.00 94 1011.1
20260510082505 51 203 0.0 0.0 0.00 0.00 0.00 94 1011.1
20260510082306 51 203 0.0 0.0 0.00 0.00 0.00 94 1011.1
20260510082105 51 203 0.0 0.0 0.00 0.00 0.00 94 1011.1
20260510081905 51 203 0.0 0.0 0.00 0.00 0.00 94 1011.1
20260510081705 51 203 0.0 0.0 0.00 0.00 0.00 94 1011.0
20260510081504 51 203 0.0 0.0 0.00 0.00 0.00 94 1011.0
20260510081305 51 203 0.0 0.0 0.00 0.00 0.00 94 1011.0
20260510081105 51 203 0.0 0.0 0.00 0.00 0.00 94 1010.9
20260510080905 51 203 0.0 0.0 0.00 0.00 0.00 94 1011.0
20260510080705 51 203 0.0 0.0 0.00 0.00 0.00 94 1010.9
20260510080504 51 203 0.0 0.0 0.00 0.00 0.00 94 1011.0
20260510080304 51 203 0.0 0.0 0.00 0.00 0.00 94 1010.9
20260510080104 51 203 0.0 0.0 0.00 0.00 0.00 94 1010.9
20260510075904 51 203 0.0 0.0 0.00 0.00 0.00 94 1010.9
20260510075704 51 203 0.0 0.0 0.00 0.00 0.00 94 1010.9
20260510075504 51 203 0.0 0.0 0.00 0.00 0.00 94 1010.9
20260510075306 51 203 0.0 0.0 0.00 0.00 0.00 94 1010.8
20260510075104 51 203 0.0 0.0 0.00 0.00 0.00 94 1010.8
20260510074905 51 203 0.0 0.0 0.00 0.00 0.00 94 1010.8
20260510074704 51 203 0.0 0.0 0.00 0.00 0.00 94 1010.7
20260510074504 52 203 0.0 0.0 0.00 0.00 0.00 94 1010.7
20260510074304 52 203 0.0 0.0 0.00 0.00 0.00 94 1010.7
20260510074104 52 203 0.0 0.0 0.00 0.00 0.00 94 1010.6
20260510073904 52 203 0.0 0.0 0.00 0.00 0.00 94 1010.6
20260510073704 52 203 0.0 0.0 0.00 0.00 0.00 94 1010.5
20260510073504 52 203 0.0 0.0 0.00 0.00 0.00 94 1010.5
20260510073304 52 203 0.0 0.0 0.00 0.00 0.00 94 1010.6
20260510073104 52 203 0.0 0.0 0.00 0.00 0.00 94 1010.5
20260510072904 52 203 0.0 0.0 0.00 0.00 0.00 94 1010.5
20260510072704 52 203 0.0 0.0 0.00 0.00 0.00 94 1010.5
20260510072504 52 203 0.0 0.0 0.00 0.00 0.00 94 1010.4
20260510072306 52 203 0.0 0.0 0.00 0.00 0.00 94 1010.4
20260510072104 52 203 0.0 0.0 0.00 0.00 0.00 94 1010.4
20260510071904 52 203 0.0 0.0 0.00 0.00 0.00 94 1010.4
20260510071704 52 203 0.0 0.0 0.00 0.00 0.00 94 1010.4
20260510071504 52 203 0.0 0.0 0.00 0.00 0.00 94 1010.4
20260510071304 52 203 0.0 0.0 0.00 0.00 0.00 94 1010.4
20260510071104 52 203 0.0 0.0 0.00 0.00 0.00 94 1010.4
20260510070904 52 203 0.0 0.0 0.00 0.00 0.00 94 1010.3
20260510070704 52 203 0.0 0.0 0.00 0.00 0.00 94 1010.3
20260510070504 52 203 0.0 0.0 0.00 0.00 0.00 94 1010.3
20260510070304 52 203 0.0 0.0 0.00 0.00 0.00 94 1010.2
20260510070104 52 203 0.0 0.0 0.00 0.00 0.00 93 1010.2
20260510065904 52 203 0.0 0.0 0.00 0.00 0.00 93 1010.2
20260510065704 52 203 0.0 0.0 0.00 0.00 0.00 93 1010.1
20260510065504 53 203 0.0 0.0 0.00 0.00 0.00 93 1010.1
20260510065306 53 203 0.0 0.0 0.00 0.00 0.00 93 1010.1
20260510065104 53 203 0.0 0.0 0.00 0.00 0.00 93 1010.1
20260510064904 53 203 0.0 0.0 0.00 0.00 0.00 93 1010.1
20260510064704 53 203 0.0 0.0 0.00 0.00 0.00 93 1010.1
20260510064504 53 203 0.0 0.0 0.00 0.00 0.00 93 1010.1
20260510064304 53 203 0.0 0.0 0.00 0.00 0.00 93 1010.1
20260510064104 53 203 0.0 0.0 0.00 0.00 0.00 93 1010.1
20260510063904 53 203 0.0 0.0 0.00 0.00 0.00 93 1010.2
20260510063704 53 203 0.0 0.0 0.00 0.00 0.00 93 1010.2
20260510063504 53 203 0.0 0.0 0.00 0.00 0.00 93 1010.2
20260510063304 53 203 0.0 0.0 0.00 0.00 0.00 93 1010.2
20260510063104 53 203 0.0 0.0 0.00 0.00 0.00 93 1010.2
20260510062904 53 203 0.0 0.0 0.00 0.00 0.00 93 1010.2
20260510062704 53 203 0.0 0.0 0.00 0.00 0.00 93 1010.2
20260510062504 54 203 0.0 0.0 0.00 0.00 0.00 93 1010.2
20260510062306 54 203 0.0 0.0 0.00 0.00 0.00 93 1010.2
20260510062104 54 203 0.0 0.0 0.00 0.00 0.00 93 1010.2
20260510061904 54 203 0.0 0.0 0.00 0.00 0.00 93 1010.2
20260510061704 54 203 0.0 0.0 0.00 0.00 0.00 93 1010.1
20260510061504 54 203 0.0 0.0 0.00 0.00 0.00 93 1010.1
20260510061304 54 203 0.0 0.0 0.00 0.00 0.00 93 1010.1
20260510061104 54 203 0.0 0.0 0.00 0.00 0.00 93 1010.0
20260510060904 54 203 0.0 0.0 0.00 0.00 0.00 93 1010.0
20260510060704 54 203 0.0 0.0 0.00 0.00 0.00 93 1010.1
20260510060504 54 203 0.0 0.0 0.00 0.00 0.00 93 1010.1
20260510060303 54 203 0.0 0.0 0.00 0.00 0.00 93 1010.1
20260510055903 54 203 0.0 0.0 0.00 0.00 0.00 93 1010.1
20260510055703 54 203 0.0 0.0 0.00 0.00 0.00 93 1010.1
20260510055503 54 203 0.0 0.0 0.00 0.00 0.00 93 1010.1
20260510055306 54 203 0.0 0.0 0.00 0.00 0.00 93 1010.1
20260510055103 54 203 0.0 0.0 0.00 0.00 0.00 93 1010.2
20260510054903 54 203 0.0 0.0 0.00 0.00 0.00 93 1010.2
20260510054703 54 203 0.0 0.0 0.00 0.00 0.00 93 1010.2
20260510054503 54 203 0.0 0.0 0.00 0.00 0.00 92 1010.2
20260510054303 54 203 0.0 0.0 0.00 0.00 0.00 92 1010.2
20260510054103 54 203 0.0 0.0 0.00 0.00 0.00 92 1010.2
20260510053903 54 203 0.0 0.0 0.00 0.00 0.00 92 1010.2
20260510053703 55 203 0.0 0.0 0.00 0.00 0.00 92 1010.1
20260510053503 55 203 0.0 0.0 0.00 0.00 0.00 92 1010.1
20260510053303 55 203 0.0 0.0 0.00 0.00 0.00 92 1010.1
20260510053103 55 203 0.0 0.0 0.00 0.00 0.00 92 1010.1
20260510052903 55 203 0.0 0.0 0.00 0.00 0.00 92 1010.1
20260510052703 55 203 0.0 0.0 0.00 0.00 0.00 92 1010.1
20260510052503 55 203 0.0 0.0 0.00 0.00 0.00 92 1010.2
20260510052306 55 203 0.0 0.0 0.00 0.00 0.00 92 1010.2
20260510052103 55 203 0.0 0.0 0.00 0.00 0.00 92 1010.2
20260510051903 55 203 0.0 0.0 0.00 0.00 0.00 92 1010.2
20260510051703 55 203 0.0 0.0 0.00 0.00 0.00 92 1010.2
20260510051503 55 203 0.0 0.0 0.00 0.00 0.00 92 1010.2
20260510051305 55 203 0.0 0.0 0.00 0.00 0.00 92 1010.2
20260510051105 55 203 0.0 0.0 0.00 0.00 0.00 92 1010.2
20260510050905 55 0 0.0 0.0 0.00 0.00 0.00 92 1010.2
20260510050705 55 203 0.0 0.0 0.00 0.00 0.00 92 1010.2
20260510050505 55 203 0.0 0.0 0.00 0.00 0.00 92 1010.3
20260510050305 55 203 0.0 0.0 0.00 0.00 0.00 92 1010.2
20260510050105 55 203 0.0 0.0 0.00 0.00 0.00 91 1010.2
20260510045905 55 203 0.0 0.0 0.00 0.00 0.00 91 1010.2
20260510045705 55 203 0.0 0.0 0.00 0.00 0.00 91 1010.1
20260510045505 55 203 0.0 0.0 0.00 0.00 0.00 91 1010.1
20260510045306 55 203 0.0 0.0 0.00 0.00 0.00 91 1010.1
20260510045105 56 203 0.0 0.0 0.00 0.00 0.00 91 1010.1
20260510044905 56 203 0.0 0.0 0.00 0.00 0.00 91 1010.1
20260510044705 56 203 0.0 0.0 0.00 0.00 0.00 91 1010.1
20260510044505 56 203 0.0 0.0 0.00 0.00 0.00 91 1010.1
20260510044305 56 203 0.0 0.0 0.00 0.00 0.00 91 1010.1
20260510044105 56 203 0.0 0.0 0.00 0.00 0.00 91 1010.1
20260510043905 56 203 0.0 0.0 0.00 0.00 0.00 91 1010.1
20260510043705 56 203 0.0 0.0 0.00 0.00 0.00 91 1010.1
20260510043505 56 203 0.0 0.0 0.00 0.00 0.00 91 1010.1
20260510043305 56 203 0.0 0.0 0.00 0.00 0.00 91 1010.1
20260510043105 56 203 0.0 0.0 0.00 0.00 0.00 91 1010.1
20260510042905 56 203 0.0 0.0 0.00 0.00 0.00 91 1010.1
20260510042705 56 203 0.0 0.0 0.00 0.00 0.00 91 1010.1
20260510042505 56 203 0.0 0.0 0.00 0.00 0.00 90 1010.1
20260510042306 56 203 0.0 0.0 0.00 0.00 0.00 90 1010.2
20260510042105 56 203 0.0 0.0 0.00 0.00 0.00 90 1010.1
20260510041905 56 203 0.0 0.0 0.00 0.00 0.00 90 1010.1
20260510041705 56 203 0.0 0.0 0.00 0.00 0.00 90 1010.0
20260510041505 57 203 0.0 0.0 0.00 0.00 0.00 90 1010.0
20260510041305 57 203 0.0 0.0 0.00 0.00 0.00 90 1010.1
20260510041105 57 203 0.0 0.0 0.00 0.00 0.00 90 1010.1
20260510040905 57 203 0.0 0.0 0.00 0.00 0.00 90 1010.1
20260510040705 57 203 0.0 0.0 0.00 0.00 0.00 90 1010.1
20260510040505 57 203 0.0 0.0 0.00 0.00 0.00 90 1010.1
20260510040305 57 203 0.0 0.0 0.00 0.00 0.00 90 1010.1
20260510040105 57 203 0.0 0.0 0.00 0.00 0.00 89 1010.1
20260510035905 57 203 0.0 0.0 0.00 0.00 0.00 89 1010.1
20260510035705 57 203 0.0 0.0 0.00 0.00 0.00 89 1010.1
20260510035505 57 203 0.0 0.0 0.00 0.00 0.00 89 1010.1
20260510035306 57 203 0.0 0.0 0.00 0.00 0.00 89 1010.1
20260510035105 57 203 0.0 0.0 0.00 0.00 0.00 89 1010.1
20260510034905 57 203 0.0 0.0 0.00 0.00 0.00 89 1010.0
20260510034705 57 203 0.0 0.0 0.00 0.00 0.00 89 1010.0
20260510034505 57 203 0.0 0.0 0.00 0.00 0.00 89 1010.0
20260510034305 57 203 0.0 0.0 0.00 0.00 0.00 89 1009.9
20260510034105 57 203 0.0 0.0 0.00 0.00 0.00 89 1009.9
20260510033905 58 203 0.0 0.0 0.00 0.00 0.00 89 1009.9
20260510033705 58 203 0.0 0.0 0.00 0.00 0.00 89 1009.9
20260510033505 58 203 0.0 0.0 0.00 0.00 0.00 88 1009.9
20260510033305 58 203 0.0 0.0 0.00 0.00 0.00 88 1009.9
20260510033105 58 203 0.0 0.0 0.00 0.00 0.00 88 1009.9
20260510032905 58 203 0.0 0.0 0.00 0.00 0.00 88 1009.9
20260510032705 58 203 0.0 0.0 0.00 0.00 0.00 87 1009.9
20260510032505 58 203 0.0 0.0 0.00 0.00 0.00 87 1009.9
20260510032306 58 203 0.0 0.0 0.00 0.00 0.00 87 1009.8
20260510032105 58 203 0.0 0.0 0.00 0.00 0.00 87 1009.8
20260510031905 58 203 0.0 0.0 0.00 0.00 0.00 87 1009.8
20260510031704 58 203 0.0 0.0 0.00 0.00 0.00 87 1009.8
20260510031504 58 203 0.0 0.0 0.00 0.00 0.00 87 1009.8
20260510031305 59 203 0.0 0.0 0.00 0.00 0.00 87 1009.8
20260510031104 59 203 0.0 0.0 0.00 0.00 0.00 87 1009.9
20260510030904 59 203 0.0 0.0 0.00 0.00 0.00 87 1009.9
20260510030704 59 203 0.0 0.0 0.00 0.00 0.00 87 1009.9
20260510030504 59 203 0.0 0.0 0.00 0.00 0.00 87 1009.9
20260510030304 59 203 0.0 0.0 0.00 0.00 0.00 87 1009.9
20260510030104 59 203 0.0 0.0 0.00 0.00 0.00 86 1009.9
20260510025904 59 203 0.0 0.0 0.00 0.00 0.00 86 1009.9
20260510025704 59 203 0.0 0.0 0.00 0.00 0.00 86 1009.9
20260510025504 59 203 0.0 0.0 0.00 0.00 0.00 86 1009.8
20260510025306 59 203 0.0 0.0 0.00 0.00 0.00 86 1009.8
20260510025104 59 203 0.0 0.0 0.00 0.00 0.00 86 1009.8
20260510024904 59 203 0.0 0.0 0.00 0.00 0.00 86 1009.7
20260510024704 60 203 0.0 0.0 0.00 0.00 0.00 85 1009.7
20260510024504 60 203 0.0 0.0 0.00 0.00 0.00 85 1009.7
20260510024304 60 203 0.0 0.0 0.00 0.00 0.00 85 1009.7
20260510024104 60 203 0.0 0.0 0.00 0.00 0.00 85 1009.7
20260510023904 60 203 0.0 0.0 0.00 0.00 0.00 85 1009.7
20260510023704 60 203 0.0 0.0 0.00 0.00 0.00 85 1009.6
20260510023504 60 203 0.0 0.0 0.00 0.00 0.00 85 1009.6
20260510023304 60 203 0.0 0.0 0.00 0.00 0.00 85 1009.6
20260510023104 60 203 0.0 0.0 0.00 0.00 0.00 85 1009.6
20260510022904 60 203 0.0 0.0 0.00 0.00 0.00 85 1009.6
20260510022704 60 203 0.0 0.0 0.00 0.00 0.00 85 1009.6
20260510022504 60 203 0.0 0.0 0.00 0.00 0.00 85 1009.6
20260510022306 60 203 0.0 0.0 0.00 0.00 0.00 85 1009.7
20260510022104 60 203 0.0 0.0 0.00 0.00 0.00 85 1009.7
20260510021904 60 203 0.0 0.0 0.00 0.00 0.00 85 1009.7
20260510021704 60 203 0.0 0.0 0.00 0.00 0.00 85 1009.7
20260510021504 60 203 0.0 0.0 0.00 0.00 0.00 85 1009.6
20260510021304 60 203 0.0 0.0 0.00 0.00 0.00 85 1009.6
20260510021104 60 203 0.0 0.0 0.00 0.00 0.00 85 1009.5
20260510020904 61 203 0.0 0.0 0.00 0.00 0.00 85 1009.5
20260510020704 61 203 0.0 0.0 0.00 0.00 0.00 85 1009.5
20260510020504 61 203 0.0 0.0 0.00 0.00 0.00 85 1009.4
20260510020304 61 203 0.0 0.0 0.00 0.00 0.00 85 1009.4
20260510020104 61 203 0.0 0.0 0.00 0.00 0.00 85 1009.4
20260510015904 61 203 0.0 0.0 0.00 0.00 0.00 84 1009.3
20260510015704 61 203 0.0 0.0 0.00 0.00 0.00 85 1009.3
20260510015504 61 203 0.0 0.0 0.00 0.00 0.00 84 1009.3
20260510015306 61 203 0.0 0.0 0.00 0.00 0.00 84 1009.3
20260510015104 61 203 0.0 0.0 0.00 0.00 0.00 84 1009.2
20260510014904 61 203 0.0 0.0 0.00 0.00 0.00 84 1009.2
20260510014704 61 203 0.0 0.0 0.00 0.00 0.00 84 1009.3
20260510014504 61 203 0.0 0.0 0.00 0.00 0.00 84 1009.3
20260510014304 61 203 0.0 0.0 0.00 0.00 0.00 84 1009.3
20260510014104 61 203 0.0 0.0 0.00 0.00 0.00 84 1009.2
20260510013904 61 203 0.0 0.0 0.00 0.00 0.00 84 1009.2
20260510013704 61 203 0.0 0.0 0.00 0.00 0.00 84 1009.1
20260510013504 61 203 0.0 0.0 0.00 0.00 0.00 84 1009.1
20260510013304 61 203 0.0 0.0 0.00 0.00 0.00 83 1009.0
20260510013104 61 203 0.0 0.0 0.00 0.00 0.00 82 1009.0
20260510012904 61 203 0.0 0.0 0.00 0.00 0.00 82 1009.0
20260510012704 61 203 0.0 0.0 0.00 0.00 0.00 82 1008.9
20260510012504 61 203 0.0 0.0 0.00 0.00 0.00 82 1008.9
20260510012306 61 203 0.0 0.0 0.00 0.00 0.00 82 1008.9
20260510012104 61 203 0.0 0.0 0.00 0.00 0.00 82 1008.9
20260510011904 61 203 0.0 0.0 0.00 0.00 0.00 82 1008.9
20260510011704 61 203 0.0 0.0 0.00 0.00 0.00 81 1008.8
20260510011504 61 203 0.0 0.0 0.00 0.00 0.00 81 1008.8
20260510011304 61 203 0.0 0.0 0.00 0.00 0.00 81 1008.8
20260510011104 61 203 0.0 0.0 0.00 0.00 0.00 81 1008.7
20260510010904 61 203 0.0 0.0 0.00 0.00 0.00 81 1008.7
20260510010704 61 203 0.0 0.0 0.00 0.00 0.00 81 1008.7
20260510010504 62 203 0.0 0.0 0.00 0.00 0.00 81 1008.7
20260510010304 62 203 0.0 0.0 0.00 0.00 0.00 81 1008.7
20260510010104 62 203 0.0 0.0 0.00 0.00 0.00 81 1008.7
20260510005904 62 203 0.0 0.0 0.00 0.00 0.00 81 1008.6
20260510005704 62 203 0.0 0.0 0.00 0.00 0.00 81 1008.6
20260510005504 62 203 0.0 0.0 0.00 0.00 0.00 80 1008.6
20260510005306 62 203 0.0 0.0 0.00 0.00 0.00 80 1008.5
20260510005104 62 203 0.0 0.0 0.00 0.00 0.00 80 1008.5
20260510004904 62 203 0.0 0.0 0.00 0.00 0.00 79 1008.4
20260510004704 62 203 0.0 0.0 0.00 0.00 0.00 79 1008.4
20260510004504 62 203 0.0 0.0 0.00 0.00 0.00 78 1008.5
20260510004304 63 203 0.0 0.0 0.00 0.00 0.00 78 1008.4
20260510004104 63 203 0.0 0.0 0.00 0.00 0.00 77 1008.4
20260510003904 63 203 0.0 0.0 0.00 0.00 0.00 77 1008.4
20260510003704 63 203 0.0 0.0 0.00 0.00 0.00 76 1008.4
20260510003504 63 203 0.0 0.0 0.00 0.00 0.00 76 1008.4
20260510003304 63 203 0.0 0.0 0.00 0.00 0.00 76 1008.4
20260510003104 63 203 0.0 0.0 0.00 0.00 0.00 76 1008.4
20260510002904 64 203 0.0 0.0 0.00 0.00 0.00 75 1008.4
20260510002704 64 203 0.0 0.0 0.00 0.00 0.00 75 1008.4
20260510002504 64 203 0.0 0.0 0.00 0.00 0.00 74 1008.4
20260510002306 64 203 0.0 0.0 0.00 0.00 0.00 74 1008.3
20260510002104 64 203 0.0 0.0 0.00 0.00 0.00 74 1008.3
20260510001904 64 203 0.0 0.0 0.00 0.00 0.00 73 1008.3
20260510001704 64 203 0.0 0.0 0.00 0.00 0.00 73 1008.3
20260510001504 64 203 0.0 0.0 0.00 0.00 0.00 72 1008.3
20260510001304 65 203 0.0 0.0 0.00 0.00 0.00 72 1008.3
20260510001104 65 203 0.0 0.0 0.00 0.00 0.00 71 1008.2
20260510000904 65 203 0.0 0.0 0.00 0.00 0.00 71 1008.2
20260510000704 65 203 0.0 0.0 0.00 0.00 0.00 71 1008.2
20260510000504 65 203 0.0 0.0 0.00 0.00 0.00 71 1008.1
20260510000304 65 203 0.0 0.0 0.00 0.00 0.00 70 1008.1
20260510000103 66 203 0.0 0.0 0.00 0.00 0.00 70 1008.1
20260509235903 66 203 0.0 0.0 0.00 0.00 0.00 70 1008.1
20260509235703 66 203 0.0 0.0 0.00 0.00 0.00 70 1008.1
20260509235503 66 203 0.0 0.0 0.00 0.00 0.00 70 1008.1
20260509235306 66 203 0.0 0.0 0.00 0.00 0.00 70 1008.1
20260509235103 66 203 0.0 0.0 0.00 0.00 0.00 70 1008.1
20260509234903 66 203 0.0 0.0 0.00 0.00 0.00 69 1008.1
20260509234704 67 203 0.0 0.0 0.00 0.00 0.00 69 1008.1
20260509234504 67 203 0.0 0.0 0.00 0.00 0.00 68 1008.0
20260509234304 67 203 0.0 0.0 0.00 0.00 0.00 68 1008.0
20260509234104 67 203 0.0 0.0 0.00 0.00 0.00 68 1008.0
20260509233904 67 203 0.0 0.0 0.00 0.00 0.00 67 1008.0
20260509233704 67 203 0.0 0.0 0.00 0.00 0.00 67 1008.0
20260509233504 67 203 0.0 0.0 0.00 0.00 0.00 67 1008.0
20260509233304 68 203 0.0 0.0 0.00 0.00 0.00 67 1007.9
20260509233104 68 203 0.0 0.0 0.00 0.00 0.00 66 1008.0
20260509232904 68 203 0.0 0.0 0.00 0.00 0.00 66 1007.9
20260509232704 68 203 0.0 0.0 0.00 0.00 0.00 66 1007.9
20260509232504 68 203 0.0 0.0 0.00 0.00 0.00 65 1007.9
20260509232306 68 203 0.0 0.0 0.00 0.00 0.00 66 1007.9
20260509232104 68 203 0.0 0.0 0.00 0.00 0.00 65 1007.9
20260509231904 68 203 0.0 0.0 0.00 0.00 0.00 64 1008.0
20260509231704 69 203 0.0 0.0 0.00 0.00 0.00 65 1008.0
20260509231504 69 203 0.0 0.0 0.00 0.00 0.00 65 1008.0
20260509231304 69 203 0.0 0.0 0.00 0.00 0.00 65 1007.9
20260509231104 69 203 0.0 0.0 0.00 0.00 0.00 64 1007.9
20260509230904 69 203 0.0 0.0 0.00 0.00 0.00 64 1007.9
20260509230704 69 203 0.0 0.0 0.00 0.00 0.00 63 1007.9
20260509230504 69 203 0.0 0.0 0.00 0.00 0.00 63 1007.9
20260509230304 70 203 0.0 0.0 0.00 0.00 0.00 62 1007.9
20260509230104 70 203 0.0 0.0 0.00 0.00 0.00 63 1007.9
20260509225904 70 203 0.0 0.0 0.00 0.00 0.00 62 1007.9
20260509225704 70 203 0.0 0.0 0.00 0.00 0.00 62 1007.9
20260509225504 70 203 0.0 0.0 0.00 0.00 0.00 62 1007.9
20260509225306 70 203 0.0 0.0 0.00 0.00 0.00 62 1007.9
20260509225104 70 203 0.0 0.0 0.00 0.00 0.00 62 1007.9
20260509224904 71 203 0.0 0.0 0.00 0.00 0.00 60 1007.9
20260509224704 71 203 0.0 0.0 0.00 0.00 0.00 60 1007.8
20260509224504 71 203 0.0 0.0 0.00 0.00 0.00 60 1007.9
20260509224304 71 203 0.0 0.0 0.00 0.00 0.00 60 1007.9
20260509224104 71 203 0.0 0.0 0.00 0.00 0.00 60 1007.9
20260509223904 71 203 0.0 0.0 0.00 0.00 0.00 60 1007.9
20260509223704 71 202 0.0 0.9 0.00 0.00 0.00 59 1008.0
20260509223504 71 184 0.0 0.0 0.00 0.00 0.00 60 1008.0
20260509223304 71 184 0.0 0.0 0.00 0.00 0.00 59 1008.0
20260509223104 71 202 0.0 0.9 0.00 0.00 0.00 59 1008.0
20260509222904 71 229 0.0 0.0 0.00 0.00 0.00 60 1008.0
20260509222704 71 229 0.0 0.0 0.00 0.00 0.00 61 1008.0
20260509222504 71 229 0.0 0.0 0.00 0.00 0.00 59 1008.1
20260509222306 72 165 0.0 0.0 0.00 0.00 0.00 60 1008.0
20260509222103 72 165 0.0 0.0 0.00 0.00 0.00 61 1008.0
20260509221903 72 165 0.0 0.0 0.00 0.00 0.00 59 1008.0
20260509221703 72 165 0.0 0.0 0.00 0.00 0.00 59 1008.0
20260509221503 72 165 0.0 0.0 0.00 0.00 0.00 58 1008.1
20260509221303 72 165 0.0 0.0 0.00 0.00 0.00 59 1008.1
20260509221103 72 165 0.0 0.0 0.00 0.00 0.00 57 1008.1
20260509220903 72 165 0.0 0.0 0.00 0.00 0.00 57 1008.1
20260509220703 72 165 0.0 0.0 0.00 0.00 0.00 57 1008.1
20260509220503 72 165 0.0 0.0 0.00 0.00 0.00 57 1008.1
20260509220303 72 165 0.0 0.0 0.00 0.00 0.00 57 1008.2
20260509220103 72 165 0.0 0.9 0.00 0.00 0.00 55 1008.1
20260509215903 73 315 0.0 0.0 0.00 0.00 0.00 55 1008.1
20260509215703 73 315 0.0 0.0 0.00 0.00 0.00 56 1008.1
20260509215503 73 315 0.0 0.0 0.00 0.00 0.00 56 1008.1
20260509215306 73 315 0.9 1.7 0.00 0.00 0.00 56 1008.1
20260509215103 73 158 0.9 1.7 0.00 0.00 0.00 57 1008.1
20260509214903 73 187 0.0 0.9 0.00 0.00 0.00 56 1008.0
20260509214703 73 197 0.0 0.0 0.00 0.00 0.00 58 1008.0
20260509214504 72 197 0.0 0.0 0.00 0.00 0.00 56 1008.0
20260509214303 72 205 0.0 0.9 0.00 0.00 0.00 57 1008.0
20260509214103 73 236 0.0 0.0 0.00 0.00 0.00 57 1008.0
20260509213903 73 236 0.0 0.0 0.00 0.00 0.00 57 1007.9
20260509213703 73 241 0.0 0.0 0.00 0.00 0.00 56 1007.9
20260509213503 73 244 0.9 1.7 0.00 0.00 0.00 56 1007.9
20260509213303 73 188 0.0 0.9 0.00 0.00 0.00 57 1008.0
20260509213103 73 233 0.0 0.9 0.00 0.00 0.00 56 1008.0
20260509212903 73 233 0.0 0.9 0.00 0.00 0.00 55 1007.9
20260509212703 73 235 0.0 0.9 0.00 0.00 0.00 55 1007.9
20260509212503 73 251 0.0 0.9 0.00 0.00 0.00 55 1007.8
20260509212306 73 247 0.9 0.9 0.00 0.00 0.00 55 1007.9
20260509212103 73 331 0.0 0.9 0.00 0.00 0.00 55 1007.8
20260509211903 73 75 0.0 0.9 0.00 0.00 0.00 55 1007.9
20260509211703 73 245 0.0 0.9 0.00 0.00 0.00 55 1007.9
20260509211503 73 259 0.0 0.9 0.00 0.00 0.00 54 1007.8
20260509211303 74 234 0.0 0.9 0.00 0.00 0.00 55 1007.9
20260509211103 74 250 0.0 0.0 0.00 0.00 0.00 53 1007.9
20260509210903 74 250 0.0 0.0 0.00 0.00 0.00 52 1007.9
20260509210703 74 100 0.0 1.7 0.00 0.00 0.00 52 1007.9
20260509210503 74 209 0.9 2.6 0.00 0.00 0.00 54 1007.9
20260509210303 74 279 0.0 0.9 0.00 0.00 0.00 53 1007.9
20260509205903 74 147 0.0 0.9 0.00 0.00 0.00 53 1007.9
20260509205703 74 114 0.9 1.7 0.00 0.00 0.00 53 1007.8
20260509205503 74 195 0.0 0.9 0.00 0.00 0.00 55 1007.8
20260509205306 74 103 0.9 5.2 0.00 0.00 0.00 55 1007.8
20260509205103 74 174 0.0 0.0 0.00 0.00 0.00 55 1007.8
20260509204905 73 146 0.0 0.9 0.00 0.00 0.00 56 1007.7
20260509204705 73 152 0.0 1.7 0.00 0.00 0.00 56 1007.7
20260509204505 73 175 0.0 0.9 0.00 0.00 0.00 56 1007.7
20260509204305 73 291 0.0 0.9 0.00 0.00 0.00 55 1007.8
20260509204105 73 238 0.9 2.6 0.00 0.00 0.00 56 1007.7
20260509203905 73 229 0.0 0.9 0.00 0.00 0.00 57 1007.7
20260509203705 73 228 0.0 0.0 0.00 0.00 0.00 55 1007.6
20260509203505 73 236 0.0 0.9 0.00 0.00 0.00 57 1007.6
20260509203305 73 299 0.0 0.0 0.00 0.00 0.00 56 1007.6
20260509203105 73 222 0.0 0.9 0.00 0.00 0.00 56 1007.6
20260509202905 73 210 0.9 2.6 0.00 0.00 0.00 56 1007.6
20260509202705 73 306 0.9 0.9 0.00 0.00 0.00 56 1007.6
20260509202505 73 194 0.0 1.7 0.00 0.00 0.00 55 1007.7
20260509202307 73 192 1.7 1.7 0.00 0.00 0.00 55 1007.7
20260509202105 73 262 0.9 1.7 0.00 0.00 0.00 55 1007.8
20260509201905 73 292 0.0 0.9 0.00 0.00 0.00 56 1007.8
20260509201705 73 288 0.0 0.9 0.00 0.00 0.00 56 1007.8
20260509201505 73 239 0.0 1.7 0.00 0.00 0.00 55 1007.9
20260509201305 73 238 0.9 5.2 0.00 0.00 0.00 57 1007.9
20260509201105 73 223 0.9 1.7 0.00 0.00 0.00 56 1007.9
20260509200905 73 225 0.0 2.6 0.00 0.00 0.00 57 1007.9
20260509200705 73 347 0.9 1.7 0.00 0.00 0.00 56 1008.0
20260509200505 73 204 0.0 0.9 0.00 0.00 0.00 57 1008.0
20260509200305 73 291 0.0 0.9 0.00 0.00 0.00 59 1008.1
20260509200105 73 354 0.0 0.0 0.00 0.00 0.00 58 1008.1
20260509195905 73 353 0.0 0.9 0.00 0.00 0.00 56 1008.1
20260509195705 73 250 0.9 0.9 0.00 0.00 0.00 55 1008.2
20260509195505 73 178 0.9 2.6 0.00 0.00 0.00 58 1008.2
20260509195306 73 247 0.9 0.9 0.00 0.00 0.00 56 1008.2
20260509195105 73 232 0.0 0.9 0.00 0.00 0.00 56 1008.3
20260509194905 73 246 0.0 0.9 0.00 0.00 0.00 58 1008.3
20260509194705 73 241 0.0 0.9 0.00 0.00 0.00 56 1008.3
20260509194505 73 238 0.0 0.9 0.00 0.00 0.00 56 1008.3
20260509194305 73 238 0.0 0.9 0.00 0.00 0.00 56 1008.3
20260509194105 73 232 0.0 2.6 0.00 0.00 0.00 56 1008.3
20260509193905 73 229 0.9 1.7 0.00 0.00 0.00 55 1008.4
20260509193705 73 217 0.9 2.6 0.00 0.00 0.00 55 1008.4
20260509193505 73 162 0.9 2.6 0.00 0.00 0.00 56 1008.5
20260509193305 73 238 0.9 4.3 0.00 0.00 0.00 56 1008.5
20260509193105 73 222 0.9 1.7 0.00 0.00 0.00 56 1008.6
20260509192905 72 155 0.0 0.9 0.00 0.00 0.00 59 1008.6
20260509192705 72 135 0.0 0.9 0.00 0.00 0.00 59 1008.7
20260509192504 72 217 0.0 0.0 0.00 0.00 0.00 59 1008.7
20260509192306 71 187 0.0 0.0 0.00 0.00 0.00 60 1008.7
20260509192104 71 298 0.0 0.9 0.00 0.00 0.00 59 1008.7
20260509191904 71 200 0.0 0.9 0.00 0.00 0.00 60 1008.7
20260509191704 71 195 0.9 1.7 0.00 0.00 0.00 59 1008.7
20260509191504 71 260 0.0 1.7 0.00 0.00 0.00 61 1008.7
20260509191304 71 215 0.0 0.0 0.00 0.00 0.00 60 1008.7
20260509191104 71 215 0.0 0.0 0.00 0.00 0.00 60 1008.8
20260509190904 71 215 0.9 0.0 0.00 0.00 0.00 58 1008.8
20260509190704 71 215 0.0 1.7 0.00 0.00 0.00 60 1008.8
20260509190504 71 245 0.9 0.9 0.00 0.00 0.00 59 1008.8
20260509190304 71 209 0.9 2.6 0.00 0.00 0.00 62 1008.9
20260509190104 70 160 0.0 0.0 0.00 0.00 0.00 63 1008.9
20260509185905 70 160 0.0 0.0 0.00 0.00 0.00 64 1008.9
20260509185704 70 160 0.0 0.0 0.00 0.00 0.00 61 1008.8
20260509185504 70 191 0.0 0.9 0.00 0.00 0.00 62 1008.9
20260509185306 70 217 0.0 0.0 0.00 0.00 0.00 63 1008.9
20260509185104 70 217 0.0 0.0 0.00 0.00 0.00 62 1009.0
20260509184904 70 217 0.0 0.0 0.00 0.00 0.00 62 1008.9
20260509184704 70 217 0.0 0.9 0.00 0.00 0.00 62 1008.9
20260509184504 70 209 0.0 0.9 0.00 0.00 0.00 60 1009.0
20260509184304 70 217 0.0 0.9 0.00 0.00 0.00 61 1009.0
20260509184104 70 246 0.0 0.9 0.00 0.00 0.00 61 1009.1
20260509183904 70 210 0.0 0.0 0.00 0.00 0.00 60 1009.1
20260509183704 70 212 0.9 1.7 0.00 0.00 0.00 60 1009.1
20260509183504 70 269 0.9 1.7 0.00 0.00 0.00 59 1009.2
20260509183304 70 239 0.0 0.0 0.00 0.00 0.00 59 1009.2
20260509183104 70 257 0.0 0.0 0.00 0.00 0.00 59 1009.2
20260509182904 70 184 0.9 1.7 0.00 0.00 0.00 59 1009.4
20260509182704 70 299 0.0 0.9 0.00 0.00 0.00 59 1009.4
20260509182504 70 279 0.0 0.0 0.00 0.00 0.00 59 1009.4
20260509182306 70 39 0.0 0.9 0.00 0.00 0.00 60 1009.5
20260509182104 70 284 0.0 0.9 0.00 0.00 0.00 58 1009.5
20260509181904 70 121 0.0 0.0 0.00 0.00 0.00 59 1009.5
20260509181704 70 302 0.0 1.7 0.00 0.00 0.00 58 1009.6
20260509181504 70 221 0.9 2.6 0.00 0.00 0.00 58 1009.5
20260509181304 70 147 0.0 1.7 0.00 0.00 0.00 59 1009.5
20260509181104 70 260 0.9 1.7 0.00 0.00 0.00 59 1009.5
20260509180904 71 229 0.9 2.6 0.00 0.00 0.00 60 1009.6
20260509180704 71 317 0.0 1.7 0.00 0.00 0.00 57 1009.6
20260509180504 71 354 0.9 1.7 0.00 0.00 0.00 57 1009.6
20260509180304 71 279 0.0 0.9 0.00 0.00 0.00 58 1009.7
20260509180104 71 262 1.7 2.6 0.00 0.00 0.00 57 1009.7
20260509175904 71 356 0.0 0.9 0.00 0.00 0.00 58 1009.7
20260509175704 71 307 0.0 0.9 0.00 0.00 0.00 60 1009.8
20260509175504 71 277 0.0 2.6 0.00 0.00 0.00 58 1009.8
20260509175306 71 69 0.0 1.7 0.00 0.00 0.00 58 1009.8
20260509175104 71 28 0.0 0.9 0.00 0.00 0.00 58 1009.9
20260509174904 71 257 0.9 1.7 0.00 0.00 0.00 57 1009.9
20260509174704 71 10 0.9 2.6 0.00 0.00 0.00 57 1009.9
20260509174504 71 81 0.0 1.7 0.00 0.00 0.00 59 1009.9
20260509174304 70 105 0.0 0.9 0.00 0.00 0.00 58 1010.0
20260509174104 70 193 0.9 2.6 0.00 0.00 0.00 59 1009.9
20260509173903 70 138 0.9 2.6 0.00 0.00 0.00 58 1009.9
20260509173703 70 245 0.9 2.6 0.00 0.00 0.00 57 1009.9
20260509173503 70 177 0.0 0.9 0.00 0.00 0.00 57 1009.9
20260509173303 70 319 0.9 2.6 0.00 0.00 0.00 57 1009.9
20260509173103 70 213 0.9 1.7 0.00 0.00 0.00 57 1009.9
20260509172903 70 238 0.0 1.7 0.00 0.00 0.00 57 1009.9
20260509172703 71 188 0.9 2.6 0.00 0.00 0.00 56 1009.9
20260509172503 71 221 1.7 2.6 0.00 0.00 0.00 56 1010.0
20260509172306 71 281 0.0 0.9 0.00 0.00 0.00 56 1009.9
20260509172103 71 171 0.9 0.9 0.00 0.00 0.00 55 1009.9
20260509171903 71 141 0.9 2.6 0.00 0.00 0.00 56 1009.9
20260509171703 71 247 0.9 2.6 0.00 0.00 0.00 56 1009.9
20260509171503 71 350 0.0 5.2 0.00 0.00 0.00 56 1009.9
20260509171303 71 260 0.9 2.6 0.00 0.00 0.00 54 1009.9
20260509171103 71 274 1.7 2.6 0.00 0.00 0.00 55 1009.9
20260509170903 71 110 0.9 1.7 0.00 0.00 0.00 55 1009.9
20260509170703 71 218 1.7 4.3 0.00 0.00 0.00 55 1009.9
20260509170504 71 227 0.9 2.6 0.00 0.00 0.00 54 1009.9
20260509170303 71 237 0.9 1.7 0.00 0.00 0.00 55 1009.9
20260509170105 71 342 0.9 0.9 0.00 0.00 0.00 56 1009.9
20260509165905 71 205 1.7 4.3 0.00 0.00 0.00 56 1009.9
20260509165705 71 176 0.9 4.3 0.00 0.00 0.00 57 1010.0
20260509165505 70 332 1.7 1.7 0.00 0.00 0.00 57 1010.0
20260509165307 70 224 0.9 1.7 0.00 0.00 0.00 57 1010.0
20260509165105 69 113 0.0 0.9 0.00 0.00 0.00 59 1010.0
20260509164905 69 310 0.9 1.7 0.00 0.00 0.00 57 1010.0
20260509164705 69 245 0.0 2.6 0.00 0.00 0.00 58 1010.1
20260509164505 69 201 0.9 1.7 0.00 0.00 0.00 57 1010.1
20260509164305 69 209 0.9 2.6 0.00 0.00 0.00 58 1010.1
20260509164105 69 131 0.9 0.9 0.00 0.00 0.00 58 1010.2
20260509163905 68 146 0.0 1.7 0.00 0.00 0.00 58 1010.2
20260509163705 68 126 0.9 0.9 0.00 0.00 0.00 58 1010.2
20260509163505 68 222 0.9 1.7 0.00 0.00 0.00 58 1010.2
20260509163305 68 250 0.0 0.0 0.00 0.00 0.00 62 1010.3
20260509163105 68 250 0.0 0.9 0.00 0.00 0.00 59 1010.3
20260509162905 68 158 0.0 0.0 0.00 0.00 0.00 58 1010.3
20260509162705 68 339 0.0 0.9 0.00 0.00 0.00 60 1010.4
20260509162505 69 343 0.0 0.9 0.00 0.00 0.00 59 1010.3
20260509162307 69 332 0.9 0.9 0.00 0.00 0.00 60 1010.3
20260509162105 69 229 0.0 0.0 0.00 0.00 0.00 61 1010.2
20260509161905 69 135 1.7 2.6 0.00 0.00 0.00 59 1010.2
20260509161705 69 253 0.0 0.9 0.00 0.00 0.00 59 1010.2
20260509161505 69 253 0.9 1.7 0.00 0.00 0.00 57 1010.2
20260509161305 69 213 0.9 1.7 0.00 0.00 0.00 59 1010.3
20260509161105 69 322 0.0 0.9 0.00 0.00 0.00 59 1010.2
20260509160905 69 299 0.0 0.9 0.00 0.00 0.00 59 1010.2
20260509160705 70 289 0.0 0.9 0.00 0.00 0.00 58 1010.2
20260509160505 70 143 0.0 0.9 0.00 0.00 0.00 58 1010.3
20260509160305 70 212 0.9 0.9 0.00 0.00 0.00 58 1010.3
20260509160105 70 267 0.0 0.9 0.00 0.00 0.00 59 1010.2
20260509155905 70 237 0.9 2.6 0.00 0.00 0.00 58 1010.3
20260509155705 70 258 0.9 1.7 0.00 0.00 0.00 58 1010.3
20260509155505 70 230 0.9 2.6 0.00 0.00 0.00 57 1010.3
20260509155306 70 155 0.9 4.3 0.00 0.00 0.00 57 1010.3
20260509155104 70 209 0.0 1.7 0.00 0.00 0.00 58 1010.4
20260509154904 70 245 0.9 2.6 0.00 0.00 0.00 59 1010.4
20260509154704 70 272 0.9 0.9 0.00 0.00 0.00 57 1010.4
20260509154504 70 110 0.0 0.0 0.00 0.00 0.00 59 1010.4
20260509154304 70 96 1.7 2.6 0.00 0.00 0.00 57 1010.5
20260509154104 70 209 0.0 0.9 0.00 0.00 0.00 57 1010.5
20260509153904 70 248 0.0 0.9 0.00 0.00 0.00 58 1010.5
20260509153704 70 207 0.9 1.7 0.00 0.00 0.00 59 1010.5